Crystal River, FL

5:23 PM EST on December 05, 2019 (GMT -0500)
Crystal River

Weather History for KCGC - October, 2019

Change the Weather History Date:

Tuesday, October 8, 2019

  Actual Average (KBKV) Record (KBKV)
Temperature  
Mean Temperature 79 °F -  
Max Temperature 87 °F 83 °F 91 °F (2014)
Min Temperature 71 °F 63 °F 46 °F (2010)
Cooling Degree Days 14    
Growing Degree Days 29 (Base 50)    
Moisture  
Dew Point 72 °F    
Average Humidity 87    
Maximum Humidity 100    
Minimum Humidity 52    
Precipitation  
Precipitation 0.42 in - - ()
Sea Level Pressure  
Sea Level Pressure 29.90 in    
Wind  
Wind Speed 4 mph (NE)    
Max Wind Speed 13 mph    
Max Gust Speed 18 mph    
Visibility 9 miles    
Events Rain , Thunderstorm    
Averages and records for this station are not official NWS values.
T = Trace of Precipitation, MM = Missing Value Source: NWS Daily Summary

Daily Weather History Graph

Daily Weather History Graph

Search for Another Location

Airport or City:

Astronomy

Oct. 08, 2019 Rise Set
Actual Time 7:27 AM EDT 7:08 PM EDT
Civil Twilight 7:03 AM EDT 7:31 PM EDT
Nautical Twilight 6:35 AM EDT 7:59 PM EDT
Astronomical Twilight 6:08 AM EDT 8:26 PM EDT
Moon 4:37 PM EDT (10/8) 2:46 AM EDT (10/8)
Length of Visible Light 12h 28m
Length of Day
11h 41m
Waxing Gibbous, 77% of the Moon is Illuminated
Oct 8
Waxing Gibbous
Oct 13
Full
Oct 21
Last Quarter
Oct 27
New
Nov 4
First Quarter

Hourly Weather History & Observations

Time (EDT) Temp. Heat Index Dew Point Humidity Pressure Visibility Wind Dir Wind Speed Gust Speed Precip Events Conditions
12:15 AM 71.6 °F - 71.6 °F 100% 29.90 in 10.0 mi NE 4.6 mph - N/A   Mostly Cloudy
12:35 AM 71.6 °F - 71.6 °F 100% 29.89 in 10.0 mi NE 4.6 mph - N/A   Scattered Clouds
12:55 AM 71.6 °F - 71.6 °F 100% 29.88 in 10.0 mi NE 5.8 mph - N/A   Overcast
1:15 AM 71.6 °F - 71.6 °F 100% 29.88 in 10.0 mi NE 3.5 mph - N/A   Overcast
1:35 AM 73.4 °F - 71.6 °F 94% 29.88 in 10.0 mi ENE 6.9 mph - N/A   Overcast
1:55 AM 73.4 °F - 71.6 °F 94% 29.88 in 10.0 mi ENE 4.6 mph - N/A   Overcast
2:15 AM 73.4 °F - 71.6 °F 94% 29.86 in 10.0 mi NE 5.8 mph - N/A   Overcast
2:35 AM 73.4 °F - 71.6 °F 94% 29.86 in 10.0 mi ENE 4.6 mph - N/A   Overcast
2:55 AM 73.4 °F - 71.6 °F 94% 29.85 in 10.0 mi Calm Calm - N/A   Overcast
3:15 AM 73.4 °F - 71.6 °F 94% 29.85 in 10.0 mi Calm Calm - N/A   Overcast
3:35 AM 73.4 °F - 71.6 °F 94% 29.85 in 10.0 mi ENE 3.5 mph - N/A   Overcast
3:55 AM 73.4 °F - 71.6 °F 94% 29.84 in 10.0 mi Calm Calm - N/A   Scattered Clouds
4:15 AM 73.4 °F - 71.6 °F 94% 29.85 in 10.0 mi Calm Calm - N/A   Mostly Cloudy
4:35 AM 73.4 °F - 71.6 °F 94% 29.85 in 7.0 mi Calm Calm - N/A   Overcast
4:55 AM 73.4 °F - 71.6 °F 94% 29.86 in 7.0 mi Calm Calm - N/A   Overcast
5:15 AM 73.4 °F - 71.6 °F 94% 29.86 in 7.0 mi Calm Calm - N/A   Overcast
5:35 AM 73.4 °F - 71.6 °F 94% 29.87 in 7.0 mi Calm Calm - N/A   Overcast
5:55 AM 73.4 °F - 73.4 °F 100% 29.87 in 7.0 mi Calm Calm - N/A   Overcast
6:15 AM 73.4 °F - 73.4 °F 100% 29.88 in 7.0 mi Calm Calm - N/A   Overcast
6:35 AM 73.4 °F - 73.4 °F 100% 29.88 in 7.0 mi Calm Calm - N/A   Overcast
6:55 AM 73.4 °F - 71.6 °F 94% 29.88 in 7.0 mi Calm Calm - N/A   Overcast
7:15 AM 73.4 °F - 71.6 °F 94% 29.88 in 10.0 mi NE 3.5 mph - N/A   Overcast
7:35 AM 73.4 °F - 71.6 °F 94% 29.88 in 7.0 mi Calm Calm - N/A   Overcast
7:55 AM 73.4 °F - 71.6 °F 94% 29.89 in 7.0 mi NNE 4.6 mph - N/A   Overcast
8:15 AM 73.4 °F - 71.6 °F 94% 29.90 in 7.0 mi NNE 4.6 mph - N/A   Overcast
8:35 AM 73.4 °F - 71.6 °F 94% 29.90 in 7.0 mi NNE 3.5 mph - N/A   Overcast
8:55 AM 73.4 °F - 71.6 °F 94% 29.91 in 7.0 mi NE 4.6 mph - N/A   Overcast
9:15 AM 75.2 °F - 71.6 °F 89% 29.92 in 7.0 mi NNE 4.6 mph - N/A   Overcast
9:35 AM 77.0 °F - 73.4 °F 89% 29.93 in 10.0 mi NE 5.8 mph - N/A   Overcast
9:55 AM 77.0 °F - 73.4 °F 89% 29.93 in 10.0 mi NE 6.9 mph - N/A   Overcast
10:15 AM 77.0 °F - 73.4 °F 89% 29.93 in 10.0 mi ENE 6.9 mph - N/A   Overcast
10:35 AM 78.8 °F - 73.4 °F 83% 29.93 in 10.0 mi ENE 6.9 mph - N/A   Overcast
10:55 AM 80.6 °F 85.4 °F 73.4 °F 79% 29.93 in 10.0 mi NE 11.5 mph - N/A   Mostly Cloudy
11:15 AM 80.6 °F 84.6 °F 71.6 °F 74% 29.93 in 10.0 mi ENE 12.7 mph 18.4 mph N/A   Scattered Clouds
11:35 AM 82.4 °F 87.2 °F 71.6 °F 70% 29.93 in 10.0 mi NE 12.7 mph 17.3 mph N/A   Scattered Clouds
11:55 AM 82.4 °F 86.3 °F 69.8 °F 66% 29.93 in 10.0 mi NE 9.2 mph - N/A   Clear
12:15 PM 82.4 °F 86.3 °F 69.8 °F 66% 29.93 in 10.0 mi ENE 10.4 mph - N/A   Mostly Cloudy
12:35 PM 82.4 °F 86.3 °F 69.8 °F 66% 29.93 in 10.0 mi ENE 8.1 mph - N/A   Overcast
12:55 PM 82.4 °F 87.2 °F 71.6 °F 70% 29.92 in 10.0 mi NE 6.9 mph - N/A   Overcast
1:15 PM 82.4 °F 87.2 °F 71.6 °F 70% 29.91 in 10.0 mi NE 6.9 mph - N/A   Overcast
1:35 PM 84.2 °F 89.6 °F 71.6 °F 66% 29.90 in 10.0 mi NE 5.8 mph - N/A   Scattered Clouds
1:55 PM 86.0 °F 91.8 °F 71.6 °F 62% 29.89 in 10.0 mi ENE 5.8 mph - N/A   Clear
2:15 PM 87.8 °F 92.6 °F 69.8 °F 55% 29.87 in 10.0 mi NNE 11.5 mph - N/A   Clear
2:35 PM 87.8 °F 91.4 °F 68.0 °F 52% 29.87 in 10.0 mi NE 9.2 mph 17.3 mph N/A   Clear
2:55 PM 87.8 °F 91.4 °F 68.0 °F 52% 29.87 in 10.0 mi NE 6.9 mph - N/A   Scattered Clouds
3:15 PM 87.8 °F 92.6 °F 69.8 °F 55% 29.86 in 10.0 mi NE 5.8 mph - N/A   Mostly Cloudy
3:35 PM 87.8 °F 93.8 °F 71.6 °F 58% 29.86 in 10.0 mi NNE 8.1 mph - N/A   Mostly Cloudy
3:55 PM 86.0 °F 91.8 °F 71.6 °F 62% 29.86 in 10.0 mi NNE 6.9 mph - N/A   Overcast
4:15 PM 86.0 °F 93.4 °F 73.4 °F 66% 29.86 in 10.0 mi NNW 9.2 mph - N/A   Mostly Cloudy
4:35 PM 87.8 °F 95.6 °F 73.4 °F 62% 29.86 in 10.0 mi North 11.5 mph 17.3 mph N/A   Mostly Cloudy
4:55 PM 75.2 °F - 71.6 °F 89% 29.88 in 1.8 mi East 12.7 mph 16.1 mph 0.23 in Rain , Thunderstorm Heavy Thunderstorms and Rain
5:15 PM 73.4 °F - 73.4 °F 100% 29.89 in 3.0 mi ENE 9.2 mph - 0.07 in Rain Rain
5:35 PM 73.4 °F - 71.6 °F 94% 29.89 in 4.0 mi ENE 12.7 mph - 0.18 in Rain Rain
5:55 PM 73.4 °F - 71.6 °F 94% 29.89 in 10.0 mi ENE 6.9 mph - 0.19 in Rain Rain
6:15 PM 73.4 °F - 71.6 °F 94% 29.91 in 10.0 mi NE 3.5 mph - N/A   Overcast
6:35 PM 73.4 °F - 71.6 °F 94% 29.91 in 10.0 mi ENE 5.8 mph - N/A   Overcast
6:55 PM 73.4 °F - 71.6 °F 94% 29.91 in 10.0 mi ENE 5.8 mph - N/A   Overcast
7:15 PM 73.4 °F - 71.6 °F 94% 29.92 in 10.0 mi ENE 3.5 mph - N/A   Overcast
7:35 PM 73.4 °F - 71.6 °F 94% 29.92 in 10.0 mi Calm Calm - N/A   Overcast
7:55 PM 73.4 °F - 71.6 °F 94% 29.92 in 10.0 mi Calm Calm - N/A   Overcast
8:15 PM 73.4 °F - 71.6 °F 94% 29.93 in 10.0 mi Calm Calm - N/A   Mostly Cloudy
8:35 PM 73.4 °F - 71.6 °F 94% 29.93 in 10.0 mi NE 3.5 mph - N/A   Scattered Clouds
8:55 PM 73.4 °F - 71.6 °F 94% 29.94 in 10.0 mi Calm Calm - N/A   Clear
9:15 PM 73.4 °F - 71.6 °F 94% 29.95 in 10.0 mi Calm Calm - N/A   Clear
9:35 PM 71.6 °F - 71.6 °F 100% 29.96 in 10.0 mi Calm Calm - N/A   Clear
9:55 PM 73.4 °F - 71.6 °F 94% 29.96 in 10.0 mi Calm Calm - N/A   Scattered Clouds
10:15 PM 71.6 °F - 71.6 °F 100% 29.96 in 10.0 mi Calm Calm - N/A   Clear
10:35 PM 73.4 °F - 71.6 °F 94% 29.97 in 10.0 mi Calm Calm - N/A   Mostly Cloudy
10:55 PM 73.4 °F - 71.6 °F 94% 29.97 in 10.0 mi Calm Calm - N/A   Overcast
11:15 PM 73.4 °F - 71.6 °F 94% 29.97 in 10.0 mi Calm Calm - N/A   Overcast
11:35 PM 73.4 °F - 71.6 °F 94% 29.97 in 10.0 mi Calm Calm - N/A   Scattered Clouds
11:55 PM 73.4 °F - 71.6 °F 94% 29.97 in 10.0 mi Calm Calm - N/A   Scattered Clouds